This is the latest recevied weather packets stored in our database for station/object ED3YAB-7. If no packets are shown the sender has not sent any weather packets the latest 10 day(s).
| Time | Temp. | Humidity | Pressure | Rain* | Wind** | Luminosity | Snow |
|---|---|---|---|---|---|---|---|
| 1777618798 | 16.11° C | 57% | 1025.9 hPa | - | - | - | - |
| 1777617598 | 16.11° C | 58% | 1025.8 hPa | - | - | - | - |
| 1777616398 | 16.11° C | 59% | 1025.6 hPa | - | - | - | - |
| 1777615200 | 15° C | 60% | 1025.6 hPa | - | - | - | - |
| 1777614000 | 14.44° C | 62% | 1025.5 hPa | - | - | - | - |
| 1777612800 | 13.89° C | 64% | 1025.3 hPa | - | - | - | - |
| 1777611600 | 13.89° C | 65% | 1025.2 hPa | - | - | - | - |
| 1777610400 | 13.33° C | 65% | 1025 hPa | - | - | - | - |
| 1777609200 | 13.33° C | 65% | 1024.9 hPa | - | - | - | - |
| 1777607999 | 13.33° C | 66% | 1024.8 hPa | - | - | - | - |
| 1777606799 | 13.89° C | 65% | 1024.9 hPa | - | - | - | - |
| 1777605599 | 13.33° C | 66% | 1024.8 hPa | - | - | - | - |
| 1777604399 | 13.33° C | 65% | 1024.8 hPa | - | - | - | - |
| 1777603199 | 14.44° C | 64% | 1024.7 hPa | - | - | - | - |
| 1777601999 | 13.89° C | 64% | 1024.7 hPa | - | - | - | - |
| 1777600801 | 14.44° C | 65% | 1024.8 hPa | - | - | - | - |
| 1777599598 | 14.44° C | 64% | 1024.7 hPa | - | - | - | - |
| 1777598398 | 14.44° C | 64% | 1024.6 hPa | - | - | - | - |
| 1777597197 | 15° C | 64% | 1024.8 hPa | - | - | - | - |
| 1777595997 | 15° C | 63% | 1024.8 hPa | - | - | - | - |
| 1777594797 | 15.56° C | 63% | 1024.8 hPa | - | - | - | - |
| 1777594033 | 15.56° C | 63% | 1024.7 hPa | - | - | - | - |
| 1777592833 | 15.56° C | 62% | 1024.6 hPa | - | - | - | - |
| 1777591633 | 15.56° C | 62% | 1024.4 hPa | - | - | - | - |
| 1777590433 | 15° C | 64% | 1024.3 hPa | - | - | - | - |
* Rain since midnight (hover to see other rain measurements)
** Current wind speed in m/s (hover to see current wind gust speed)